Weather History for Hermiston, OR

Change the Weather History Date:

Thursday, February 20, 2014

  Actual Average Record
Temperature  
Mean Temperature 44 °F -  
Max Temperature 52 °F 50 °F 67 °F (1982)
Min Temperature 37 °F 31 °F 10 °F (2006)
Degree Days  
Heating Degree Days 20    
Moisture  
Dew Point 33 °F    
Average Humidity 60    
Maximum Humidity 79    
Minimum Humidity 48    
Precipitation  
Precipitation 0.00 in - - ()
Sea Level Pressure  
Sea Level Pressure 30.10 in    
Wind  
Wind Speed 14 mph (SW)    
Max Wind Speed 28 mph    
Max Gust Speed 40 mph    
Visibility 10 miles    
Events      
Averages and records for this station are not official NWS values.
T = Trace of Precipitation, MM = Missing Value Source: NWS Daily Summary

Daily Weather History Graph

Daily Weather History Graph

Search for Another Location

Airport:

Trip Planner

Search our weather history database for the weather conditions in past years. The results will help you decide how hot, cold, wet, or windy it might be!

Date:

Astronomy

Feb. 20, 2014 Rise Set
Actual Time 6:51 AM PST 5:31 PM PST
Civil Twilight 6:20 AM PST 6:01 PM PST
Nautical Twilight 5:46 AM PST 6:36 PM PST
Astronomical Twilight 5:11 AM PST 7:10 PM PST
Moon 11:51 PM PST (2/20) 9:18 AM PST (2/20)
Length of Visible Light 11h 40m
Length of Day
10h 39m
Waning Gibbous, 70% of the Moon is Illuminated
Feb 20
Waning Gibbous
Feb 22
Last Quarter
Mar 1
New
Mar 8
First Quarter
Mar 16
Full

Hourly Weather History & Observations

Time (PST) Temp. Windchill Dew Point Humidity Pressure Visibility Wind Dir Wind Speed Gust Speed Precip Events Conditions
12:53 AM 37.9 °F 34.4 °F 30.0 °F 73% 30.17 in 10.0 mi South 4.6 mph - N/A   Overcast
1:53 AM 37.9 °F 34.4 °F 30.0 °F 73% 30.15 in 10.0 mi South 4.6 mph - N/A   Mostly Cloudy
2:53 AM 41.0 °F 35.8 °F 30.0 °F 65% 30.13 in 10.0 mi SSW 8.1 mph - N/A   Overcast
3:53 AM 41.0 °F 36.4 °F 30.0 °F 65% 30.10 in 10.0 mi SW 6.9 mph - N/A   Mostly Cloudy
4:53 AM 44.1 °F 38.6 °F 30.0 °F 58% 30.08 in 10.0 mi SW 10.4 mph - N/A   Overcast
5:53 AM 45.0 °F 39.3 °F 30.9 °F 58% 30.06 in 10.0 mi WSW 11.5 mph - N/A   Mostly Cloudy
6:53 AM 48.9 °F - 30.9 °F 50% 30.04 in 10.0 mi SW 17.3 mph 26.5 mph N/A   Overcast
7:53 AM 50.0 °F - 30.9 °F 48% 30.05 in 10.0 mi SW 26.5 mph 36.8 mph N/A   Overcast
8:53 AM 48.9 °F - 34.0 °F 56% 30.08 in 10.0 mi WSW 18.4 mph 28.8 mph 0.00 in   Overcast
9:53 AM 48.9 °F - 35.1 °F 59% 30.10 in 10.0 mi WSW 17.3 mph 29.9 mph 0.00 in   Mostly Cloudy
10:53 AM 48.9 °F - 32.0 °F 52% 30.12 in 10.0 mi WSW 23.0 mph 32.2 mph N/A   Mostly Cloudy
11:53 AM 48.9 °F - 33.1 °F 54% 30.10 in 10.0 mi WSW 23.0 mph 38.0 mph N/A   Scattered Clouds
12:53 PM 50.0 °F - 34.0 °F 54% 30.09 in 10.0 mi WSW 27.6 mph 40.3 mph N/A   Clear
1:53 PM 51.1 °F - 33.1 °F 50% 30.09 in 10.0 mi WSW 21.9 mph 38.0 mph N/A   Clear
2:53 PM 52.0 °F - 33.1 °F 49% 30.10 in 10.0 mi WSW 19.6 mph 33.4 mph N/A   Clear
3:53 PM 52.0 °F - 33.1 °F 49% 30.10 in 10.0 mi WSW 23.0 mph 29.9 mph N/A   Clear
4:53 PM 48.9 °F - 33.1 °F 54% 30.09 in 10.0 mi West 24.2 mph 33.4 mph N/A   Clear
5:53 PM 48.0 °F - 33.1 °F 56% 30.09 in 10.0 mi West 24.2 mph 36.8 mph N/A   Clear
6:53 PM 46.0 °F 38.8 °F 34.0 °F 63% 30.11 in 10.0 mi WSW 18.4 mph 24.2 mph N/A   Clear
7:53 PM 45.0 °F 37.1 °F 34.0 °F 65% 30.10 in 10.0 mi WSW 19.6 mph - N/A   Clear
8:53 PM 44.1 °F 36.8 °F 35.1 °F 71% 30.12 in 10.0 mi SW 16.1 mph - N/A   Clear
9:53 PM 39.9 °F 32.5 °F 34.0 °F 79% 30.13 in 10.0 mi SSW 12.7 mph - N/A   Clear
10:53 PM 43.0 °F 34.2 °F 34.0 °F 71% 30.12 in 10.0 mi SW 20.7 mph - N/A   Clear
11:53 PM 43.0 °F 34.2 °F 34.0 °F 71% 30.12 in 10.0 mi SW 20.7 mph 28.8 mph N/A   Clear